This demonstration page uses our WeatherBlox Daily Observations layout. Learn more.

Left ArrowRight Arrow

Hourly Observations for April 1, 2018

Temp ( °F °C ) Dew Point ( °F °C ) Humidity (%) Winds ( mph kmh ) Pressure ( in mb ) Visibility ( mi km ) Precip ( " mm )
12:51 am 00:51 Clear 60 15.6 17 -8.3 19 19 E 6 9 29.85 1011 10 16 0.00 0.00
1:51 am 01:51 Clear 60 15.6 19 -7.2 20 20 S 5 7 29.85 1011 10 16 0.00 0.00
2:51 am 02:51 Clear 56 13.3 19 -7.2 24 24 E 5 7 29.84 1010 10 16 0.00 0.00
3:51 am 03:51 Clear 56 13.3 19 -7.2 24 24 E 5 7 29.83 1010 10 16 0.00 0.00
4:51 am 04:51 Clear 55 12.8 19 -7.2 24 24 E 6 9 29.83 1010 10 16 0.00 0.00
5:51 am 05:51 Clear 53 11.7 19 -7.2 26 26 E 5 7 29.84 1011 10 16 0.00 0.00
6:51 am 06:51 Sunny 53 11.7 21 -6.1 28 28 Calm 29.87 1011 10 16 0.00 0.00
7:51 am 07:51 Sunny 59 15 23 -5 25 25 Calm 29.88 1012 10 16 0.00 0.00
8:51 am 08:51 Sunny 62 16.7 22 -5.6 21 21 Calm 29.87 1012 10 16 0.00 0.00
9:51 am 09:51 Sunny 69 20.6 20 -6.7 15 15 NW 3 6 29.87 1011 10 16 0.00 0.00
10:51 am 10:51 Sunny 74 23.3 18 -7.8 12 12 VRB 3 6 29.86 1011 10 16 0.00 0.00
11:51 am 11:51 Sunny 75 23.9 17 -8.3 11 11 Calm 29.83 1010 10 16 0.00 0.00
12:51 pm 12:51 Sunny 76 24.4 18 -7.8 11 11 VRB 6 9 29.82 1010 10 16 0.00 0.00
1:51 pm 13:51 Sunny 78 25.6 17 -8.3 10 10 NNW 6 9 29.78 1009 10 16 0.00 0.00
2:51 pm 14:51 Sunny 79 26.1 16 -8.9 9 9 Calm 29.77 1008 10 16 0.00 0.00
3:51 pm 15:51 Sunny 81 27.2 17 -8.3 9 9 W 10 17 29.75 1008 10 16 0.00 0.00
4:51 pm 16:51 Sunny 81 27.2 16 -8.9 9 9 NW 8 13 29.74 1007 10 16 0.00 0.00
5:51 pm 17:51 Sunny 80 26.7 15 -9.4 8 8 WNW 8 13 29.74 1007 10 16 0.00 0.00
6:51 pm 18:51 Clear 72 22.2 15 -9.4 11 11 NW 6 9 29.75 1008 10 16 0.00 0.00
7:51 pm 19:51 Clear 67 19.4 15 -9.4 13 13 N 9 15 29.76 1008 10 16 0.00 0.00
8:51 pm 20:51 Clear 64 17.8 13 -10.6 13 13 N 7 11 29.77 1008 10 16 0.00 0.00
9:51 pm 21:51 Clear 59 15 15 -9.4 18 18 SSE 5 7 29.78 1008 10 16 0.00 0.00
10:51 pm 22:51 Clear 56 13.3 17 -8.3 22 22 N 6 9 29.79 1009 10 16 0.00 0.00
11:51 pm 23:51 Clear 55 12.8 15 -9.4 20 20 NE 5 7 29.78 1008 10 16 0.00 0.00

Powered by AerisWeather